VIS870 UUEE-URWW

Flight info

Callsign VIS870
Flight time 1h 43m
Altitude 41000
Route TOGMO3F TOGMO M56 ABAGI B105 NIMTA/K0904F400 B105 NATIT NATIT2G
Aircraft B748/H-SDE3FGHIM1M2RWXY/LB1

Departure

Time 2026-05-07 17:00
Airport Sheremetyevo International Airport (UUEE)

Arrival

Time 2026-05-07 18:43
Airport Volgograd International Airport (URWW)
Time Latitude Longitude Altitude Speed Heading
2026-05-07 15:57 55.97632 37.39580 639 ft 0 kts 255°
2026-05-07 16:43 55.97636 37.39605 644 ft 6 kts 255°
2026-05-07 16:44 55.97656 37.39673 645 ft 5 kts 204°
2026-05-07 16:44 55.97688 37.39683 641 ft 5 kts 171°
2026-05-07 16:44 55.97696 37.39680 641 ft 2 kts 168°
2026-05-07 16:44 55.97665 37.39701 648 ft 4 kts 157°
2026-05-07 16:45 55.97603 37.39740 643 ft 8 kts 159°
2026-05-07 16:45 55.97573 37.39744 646 ft 2 kts 182°
2026-05-07 16:45 55.97552 37.39730 647 ft 5 kts 210°
2026-05-07 16:45 55.97537 37.39700 647 ft 4 kts 239°
2026-05-07 16:46 55.97503 37.39504 643 ft 35 kts 252°
2026-05-07 16:46 55.97416 37.38893 644 ft 59 kts 254°
2026-05-07 16:46 55.97360 37.38545 645 ft 1 kts 225°
2026-05-07 16:46 55.97326 37.38532 645 ft 9 kts 172°
2026-05-07 16:47 55.97282 37.38571 644 ft 9 kts 158°
2026-05-07 16:47 55.97157 37.38629 645 ft 23 kts 166°
2026-05-07 16:47 55.97115 37.38646 642 ft 0 kts 176°
2026-05-07 16:47 55.97104 37.38651 643 ft 10 kts 166°
2026-05-07 16:48 55.97046 37.38679 643 ft 8 kts 165°
2026-05-07 16:48 55.96893 37.38754 641 ft 26 kts 164°
2026-05-07 16:48 55.96862 37.38768 640 ft 0 kts 166°
2026-05-07 16:59 55.96824 37.38785 647 ft 21 kts 166°
2026-05-07 16:59 55.96761 37.38960 642 ft 13 kts 79°
2026-05-07 17:00 55.96828 37.39405 646 ft 87 kts 74°
2026-05-07 17:00 55.97075 37.41070 725 ft 183 kts 77°
2026-05-07 17:00 55.97378 37.43314 1947 ft 186 kts 79°
2026-05-07 17:00 55.97547 37.45633 2500 ft 203 kts 93°
2026-05-07 17:01 55.97285 37.48355 2475 ft 241 kts 97°
2026-05-07 17:01 55.97276 37.51564 2644 ft 272 kts 86°
2026-05-07 17:01 55.97452 37.54992 3414 ft 281 kts 85°
2026-05-07 17:01 55.97592 37.58523 3885 ft 288 kts 88°
2026-05-07 17:02 55.97651 37.60890 3978 ft 289 kts 89°
2026-05-07 17:02 55.97751 37.64438 3976 ft 285 kts 83°
2026-05-07 17:02 55.98414 37.67749 3987 ft 288 kts 54°
2026-05-07 17:02 56.00421 37.70682 4008 ft 281 kts 19°
2026-05-07 17:03 56.02253 37.71819 3992 ft 278 kts 14°
2026-05-07 17:03 56.04109 37.72839 3985 ft 280 kts 14°
2026-05-07 17:03 56.05379 37.73396 3994 ft 277 kts
2026-05-07 17:03 56.07797 37.72557 4021 ft 266 kts 326°
2026-05-07 17:04 56.08768 37.71268 4356 ft 261 kts 311°
2026-05-07 17:04 56.09890 37.68755 5310 ft 260 kts 303°
2026-05-07 17:04 56.10983 37.66102 5899 ft 266 kts 302°
2026-05-07 17:04 56.11866 37.63257 5988 ft 259 kts 283°
2026-05-07 17:05 56.12100 37.60101 6024 ft 255 kts 263°
2026-05-07 17:05 56.11705 37.57040 6700 ft 252 kts 251°
2026-05-07 17:05 56.11150 37.54050 7541 ft 256 kts 251°
2026-05-07 17:05 56.10578 37.51021 7932 ft 257 kts 251°
2026-05-07 17:06 56.10013 37.48042 7983 ft 255 kts 251°
2026-05-07 17:06 56.09448 37.45050 7982 ft 253 kts 251°
2026-05-07 17:06 56.08883 37.42065 7984 ft 253 kts 251°
2026-05-07 17:06 56.08314 37.39074 7984 ft 254 kts 250°
2026-05-07 17:07 56.07463 37.36329 7995 ft 254 kts 232°
2026-05-07 17:07 56.06131 37.34241 7992 ft 258 kts 214°
2026-05-07 17:07 56.04445 37.33072 8012 ft 265 kts 195°
2026-05-07 17:07 56.02580 37.32863 7998 ft 271 kts 186°
2026-05-07 17:08 56.00696 37.32841 8005 ft 270 kts 186°
2026-05-07 17:08 55.98816 37.32822 8003 ft 270 kts 186°
2026-05-07 17:08 55.96959 37.32968 8010 ft 273 kts 179°
2026-05-07 17:08 55.95069 37.33321 8001 ft 273 kts 180°
2026-05-07 17:09 55.93180 37.33650 7998 ft 273 kts 180°
2026-05-07 17:09 55.91290 37.33984 8005 ft 273 kts 180°
2026-05-07 17:09 55.89399 37.34326 7998 ft 273 kts 180°
2026-05-07 17:09 55.87512 37.34509 8061 ft 271 kts 184°
2026-05-07 17:10 55.85623 37.34639 8663 ft 275 kts 183°
2026-05-07 17:10 55.83697 37.34799 8978 ft 276 kts 183°
2026-05-07 17:10 55.81806 37.34935 8985 ft 275 kts 184°
2026-05-07 17:10 55.79902 37.35058 8983 ft 274 kts 184°
2026-05-07 17:11 55.77997 37.35183 8980 ft 274 kts 184°
2026-05-07 17:11 55.76091 37.35314 8983 ft 274 kts 184°
2026-05-07 17:11 55.74186 37.35444 8984 ft 274 kts 184°
2026-05-07 17:11 55.72280 37.35572 9012 ft 275 kts 183°
2026-05-07 17:12 55.70362 37.35715 9557 ft 278 kts 182°
2026-05-07 17:12 55.68351 37.35863 9971 ft 304 kts 182°
2026-05-07 17:12 55.66103 37.36028 10016 ft 344 kts 180°
2026-05-07 17:12 55.63653 37.37023 10018 ft 375 kts 162°
2026-05-07 17:13 55.61431 37.39363 10157 ft 384 kts 143°
2026-05-07 17:13 55.59677 37.42984 10955 ft 395 kts 126°
2026-05-07 17:13 55.58544 37.47472 11779 ft 406 kts 110°
2026-05-07 17:13 55.57886 37.52382 12563 ft 413 kts 104°
2026-05-07 17:14 55.57328 37.57384 13307 ft 416 kts 108°
2026-05-07 17:14 55.56231 37.62089 13973 ft 414 kts 124°
2026-05-07 17:14 55.54504 37.66026 14617 ft 410 kts 139°
2026-05-07 17:14 55.52314 37.69201 15240 ft 407 kts 152°
2026-05-07 17:15 55.49802 37.71460 15825 ft 405 kts 163°
2026-05-07 17:15 55.47091 37.72749 16407 ft 404 kts 175°
2026-05-07 17:15 55.44293 37.73284 16982 ft 405 kts 179°
2026-05-07 17:15 55.41470 37.73758 17533 ft 410 kts 177°
2026-05-07 17:16 55.38630 37.74462 18061 ft 415 kts 174°
2026-05-07 17:16 55.35764 37.75255 18527 ft 418 kts 175°
2026-05-07 17:16 55.32902 37.76364 18944 ft 426 kts 165°
2026-05-07 17:16 55.30105 37.78149 19366 ft 430 kts 163°
2026-05-07 17:17 55.27333 37.79969 19769 ft 433 kts 162°
2026-05-07 17:17 55.24507 37.81859 20173 ft 436 kts 162°
2026-05-07 17:17 55.21657 37.83748 20542 ft 439 kts 163°
2026-05-07 17:17 55.18788 37.85627 20897 ft 441 kts 163°
2026-05-07 17:18 55.15905 37.87515 21251 ft 444 kts 162°
2026-05-07 17:18 55.13010 37.89451 21600 ft 448 kts 160°
2026-05-07 17:18 55.10272 37.92122 21926 ft 455 kts 147°
2026-05-07 17:18 55.07862 37.95757 22267 ft 461 kts 137°
2026-05-07 17:19 55.05651 37.99711 22559 ft 463 kts 136°
2026-05-07 17:19 55.03418 38.03775 22844 ft 466 kts 136°
2026-05-07 17:19 55.01167 38.07856 23135 ft 467 kts 136°
2026-05-07 17:19 54.98897 38.11915 23422 ft 469 kts 137°
2026-05-07 17:20 54.96609 38.15995 23650 ft 471 kts 136°
2026-05-07 17:20 54.94321 38.20094 23853 ft 473 kts 136°
2026-05-07 17:20 54.92026 38.24206 24055 ft 474 kts 136°
2026-05-07 17:20 54.89725 38.28306 24259 ft 475 kts 136°
2026-05-07 17:21 54.87411 38.32417 24455 ft 477 kts 136°
2026-05-07 17:21 54.85187 38.36706 24662 ft 480 kts 128°
2026-05-07 17:21 54.83446 38.41567 24831 ft 482 kts 121°
2026-05-07 17:21 54.81812 38.46648 24994 ft 483 kts 120°
2026-05-07 17:22 54.80184 38.51760 25172 ft 484 kts 120°
2026-05-07 17:22 54.78534 38.56856 25342 ft 485 kts 121°
2026-05-07 17:22 54.76627 38.61657 25529 ft 484 kts 132°
2026-05-07 17:22 54.74199 38.65674 25728 ft 483 kts 144°
2026-05-07 17:23 54.71402 38.68862 25908 ft 482 kts 150°
2026-05-07 17:23 54.68526 38.71852 26115 ft 483 kts 151°
2026-05-07 17:23 54.65666 38.74780 26312 ft 485 kts 151°
2026-05-07 17:23 54.62776 38.77771 26513 ft 486 kts 150°
2026-05-07 17:24 54.59877 38.80799 26731 ft 488 kts 150°
2026-05-07 17:24 54.56967 38.83830 26948 ft 489 kts 150°
2026-05-07 17:24 54.54042 38.86852 27166 ft 491 kts 150°
2026-05-07 17:24 54.51109 38.89880 27400 ft 493 kts 150°
2026-05-07 17:25 54.48160 38.92929 27632 ft 495 kts 150°
2026-05-07 17:25 54.45209 38.95975 27897 ft 496 kts 150°
2026-05-07 17:25 54.42294 38.99161 28151 ft 499 kts 143°
2026-05-07 17:25 54.39767 39.03142 28420 ft 501 kts 131°
2026-05-07 17:26 54.37716 39.07982 28696 ft 504 kts 120°
2026-05-07 17:26 54.36213 39.13413 28982 ft 505 kts 112°
2026-05-07 17:26 54.34871 39.18971 29394 ft 505 kts 111°
2026-05-07 17:26 54.33555 39.24553 29860 ft 504 kts 112°
2026-05-07 17:27 54.32226 39.30102 30289 ft 503 kts 112°
2026-05-07 17:27 54.30872 39.35628 30715 ft 503 kts 112°
2026-05-07 17:27 54.29525 39.41134 31154 ft 502 kts 112°
2026-05-07 17:27 54.28189 39.46649 31613 ft 501 kts 112°
2026-05-07 17:28 54.26852 39.52149 32075 ft 500 kts 112°
2026-05-07 17:28 54.25509 39.57623 32544 ft 499 kts 112°
2026-05-07 17:28 54.24162 39.63092 33039 ft 498 kts 112°
2026-05-07 17:28 54.22838 39.68475 33513 ft 497 kts 112°
2026-05-07 17:29 54.21499 39.73917 33964 ft 496 kts 113°
2026-05-07 17:29 54.20155 39.79349 34352 ft 496 kts 113°
2026-05-07 17:29 54.18813 39.84756 34722 ft 495 kts 113°
2026-05-07 17:29 54.17466 39.90173 35099 ft 495 kts 113°
2026-05-07 17:30 54.16120 39.95581 35468 ft 495 kts 113°
2026-05-07 17:30 54.14770 40.00987 35816 ft 495 kts 113°
2026-05-07 17:30 54.13422 40.06371 36164 ft 495 kts 114°
2026-05-07 17:30 54.12069 40.11772 36489 ft 495 kts 112°
2026-05-07 17:31 54.10971 40.17328 36795 ft 495 kts 107°
2026-05-07 17:31 54.10015 40.22979 37109 ft 496 kts 106°
2026-05-07 17:31 54.09075 40.28626 37417 ft 496 kts 107°
2026-05-07 17:31 54.08092 40.34255 37718 ft 496 kts 107°
2026-05-07 17:32 54.07112 40.39748 38013 ft 497 kts 107°
2026-05-07 17:32 54.06116 40.45438 38312 ft 497 kts 107°
2026-05-07 17:32 54.05138 40.51093 38586 ft 497 kts 107°
2026-05-07 17:32 54.04150 40.56725 38808 ft 497 kts 107°
2026-05-07 17:33 54.03166 40.62255 39025 ft 498 kts 107°
2026-05-07 17:33 54.02149 40.67986 39251 ft 498 kts 107°
2026-05-07 17:33 54.01150 40.73628 39468 ft 498 kts 107°
2026-05-07 17:33 54.00150 40.79263 39691 ft 498 kts 107°
2026-05-07 17:34 53.99142 40.84891 39927 ft 498 kts 107°
2026-05-07 17:34 53.98130 40.90519 40153 ft 498 kts 107°
2026-05-07 17:34 53.97119 40.96146 40381 ft 498 kts 107°
2026-05-07 17:34 53.96107 41.01772 40603 ft 499 kts 108°
2026-05-07 17:35 53.95177 41.07353 40830 ft 499 kts 105°
2026-05-07 17:35 53.94256 41.13013 40909 ft 496 kts 107°
2026-05-07 17:35 53.92377 41.24235 40921 ft 492 kts 106°
2026-05-07 17:36 53.90556 41.35389 40918 ft 489 kts 106°
2026-05-07 17:36 53.88697 41.46484 40924 ft 489 kts 106°
2026-05-07 17:37 53.86861 41.57497 40920 ft 489 kts 106°
2026-05-07 17:37 53.84988 41.68588 40921 ft 490 kts 106°
2026-05-07 17:38 53.83112 41.79660 40922 ft 489 kts 107°
2026-05-07 17:38 53.81216 41.90702 40925 ft 489 kts 107°
2026-05-07 17:39 53.79312 42.01747 40933 ft 489 kts 107°
2026-05-07 17:39 53.77398 42.12774 40944 ft 489 kts 107°
2026-05-07 17:40 53.75488 42.23716 40943 ft 489 kts 107°
2026-05-07 17:40 53.73552 42.34733 40938 ft 488 kts 107°
2026-05-07 17:41 53.71611 42.45712 40931 ft 488 kts 107°
2026-05-07 17:41 53.69660 42.56691 40932 ft 488 kts 107°
2026-05-07 17:42 53.67485 42.67514 40979 ft 487 kts 118°
2026-05-07 17:42 53.65682 42.72336 40964 ft 486 kts 130°
2026-05-07 17:42 53.63335 42.76411 40961 ft 484 kts 143°
2026-05-07 17:43 53.60592 42.79525 40950 ft 482 kts 155°
2026-05-07 17:43 53.57498 42.81641 40954 ft 480 kts 167°
2026-05-07 17:43 53.50937 42.83440 40949 ft 478 kts 174°
2026-05-07 17:44 53.44353 42.85075 40954 ft 479 kts 169°
2026-05-07 17:44 53.38011 42.88507 40952 ft 482 kts 156°
2026-05-07 17:45 53.32006 42.93502 40950 ft 482 kts 156°
2026-05-07 17:45 53.25847 42.97719 40950 ft 481 kts 160°
2026-05-07 17:46 53.19690 43.02137 40949 ft 482 kts 157°
2026-05-07 17:46 53.13522 43.06522 40949 ft 482 kts 156°
2026-05-07 17:47 53.07402 43.11078 40936 ft 482 kts 158°
2026-05-07 17:47 53.01268 43.15605 40936 ft 482 kts 156°
2026-05-07 17:48 52.95180 43.20140 40934 ft 483 kts 157°
2026-05-07 17:48 52.89044 43.24647 40936 ft 483 kts 157°
2026-05-07 17:49 52.82908 43.29178 40938 ft 483 kts 157°
2026-05-07 17:49 52.76771 43.33670 40942 ft 483 kts 157°
2026-05-07 17:50 52.70631 43.38166 40938 ft 483 kts 157°
2026-05-07 17:50 52.64488 43.42641 40939 ft 483 kts 157°
2026-05-07 17:51 52.58391 43.47075 40940 ft 483 kts 157°
2026-05-07 17:51 52.52243 43.51529 40941 ft 483 kts 157°
2026-05-07 17:52 52.46096 43.55970 40946 ft 483 kts 157°
2026-05-07 17:52 52.39946 43.60399 40947 ft 483 kts 157°
2026-05-07 17:53 52.33790 43.64818 40944 ft 483 kts 157°
2026-05-07 17:53 52.27647 43.69216 40946 ft 482 kts 157°
2026-05-07 17:54 52.21540 43.73574 40942 ft 482 kts 157°
2026-05-07 17:54 52.15391 43.77948 40946 ft 482 kts 157°
2026-05-07 17:55 52.09234 43.82316 40946 ft 482 kts 157°
2026-05-07 17:55 52.03082 43.86666 40959 ft 482 kts 157°
2026-05-07 17:56 51.96929 43.91004 40956 ft 482 kts 157°
2026-05-07 17:56 51.90774 43.95331 40960 ft 482 kts 157°
2026-05-07 17:57 51.85658 43.98918 40956 ft 482 kts 157°
2026-05-07 17:57 51.78500 44.03920 40956 ft 482 kts 157°
2026-05-07 17:58 51.72338 44.08213 40957 ft 482 kts 157°
2026-05-07 17:58 51.66179 44.12491 40959 ft 482 kts 157°
2026-05-07 17:59 51.60013 44.16761 40963 ft 482 kts 157°
2026-05-07 17:59 51.53849 44.21017 40962 ft 483 kts 157°
2026-05-07 18:00 51.47714 44.25241 40958 ft 483 kts 157°
2026-05-07 18:00 51.41532 44.29484 40957 ft 483 kts 158°
2026-05-07 18:01 51.35355 44.33712 40962 ft 483 kts 158°
2026-05-07 18:01 51.29166 44.37931 40967 ft 483 kts 157°
2026-05-07 18:02 51.19893 44.44241 40966 ft 483 kts 158°
2026-05-07 18:03 51.13526 44.47545 40982 ft 482 kts 175°
2026-05-07 18:03 51.06911 44.47077 40969 ft 480 kts 190°
2026-05-07 18:04 51.00330 44.45307 40963 ft 481 kts 187°
2026-05-07 18:04 50.93641 44.44762 40966 ft 482 kts 181°
2026-05-07 18:05 50.86945 44.44262 40965 ft 482 kts 186°
2026-05-07 18:05 50.80274 44.44466 41004 ft 480 kts 167°
2026-05-07 18:05 50.77153 44.46085 41019 ft 466 kts 155°
2026-05-07 18:06 50.74419 44.48628 41000 ft 448 kts 143°
2026-05-07 18:06 50.72230 44.51883 40980 ft 432 kts 129°
2026-05-07 18:06 50.70627 44.55780 40967 ft 417 kts 114°
2026-05-07 18:06 50.69738 44.60040 40964 ft 404 kts 99°
2026-05-07 18:07 50.69594 44.64386 40971 ft 391 kts 88°
2026-05-07 18:07 50.69409 44.72698 40977 ft 370 kts 107°
2026-05-07 18:07 50.68366 44.76340 40978 ft 361 kts 126°
2026-05-07 18:08 50.66669 44.79179 40964 ft 354 kts 146°
2026-05-07 18:08 50.64506 44.80904 40972 ft 346 kts 167°
2026-05-07 18:08 50.62150 44.81384 40973 ft 339 kts 182°
2026-05-07 18:09 50.57491 44.80704 40912 ft 331 kts 189°
2026-05-07 18:09 50.53022 44.79585 40831 ft 325 kts 191°
2026-05-07 18:09 50.50788 44.78996 40572 ft 329 kts 190°
2026-05-07 18:10 50.48448 44.78374 39237 ft 357 kts 190°
2026-05-07 18:10 50.45893 44.77687 37247 ft 387 kts 190°
2026-05-07 18:10 50.43195 44.76944 35472 ft 397 kts 190°
2026-05-07 18:10 50.40474 44.76169 33606 ft 399 kts 190°
2026-05-07 18:11 50.37737 44.75366 30695 ft 395 kts 190°
2026-05-07 18:11 50.35938 44.74830 27880 ft 409 kts 190°
2026-05-07 18:11 50.32102 44.73682 23769 ft 423 kts 190°
2026-05-07 18:11 50.29275 44.72833 21611 ft 401 kts 190°
2026-05-07 18:12 50.26624 44.72038 19955 ft 376 kts 190°
2026-05-07 18:12 50.24136 44.71295 18651 ft 353 kts 190°
2026-05-07 18:12 50.21824 44.70608 17968 ft 321 kts 190°
2026-05-07 18:12 50.19775 44.69999 17937 ft 279 kts 190°
2026-05-07 18:13 50.17967 44.69459 17934 ft 256 kts 190°
2026-05-07 18:13 50.16220 44.68938 17947 ft 255 kts 190°
2026-05-07 18:13 50.14487 44.68419 17944 ft 253 kts 190°
2026-05-07 18:13 50.12753 44.67899 17947 ft 253 kts 190°
2026-05-07 18:14 50.11048 44.67390 17949 ft 253 kts 190°
2026-05-07 18:14 50.09321 44.66874 17955 ft 253 kts 190°
2026-05-07 18:14 50.07592 44.66356 17956 ft 253 kts 190°
2026-05-07 18:14 50.05864 44.65839 17953 ft 253 kts 190°
2026-05-07 18:15 50.04139 44.65325 17778 ft 252 kts 190°
2026-05-07 18:15 50.02417 44.64812 17185 ft 251 kts 190°
2026-05-07 18:15 50.00705 44.64303 16568 ft 250 kts 190°
2026-05-07 18:15 49.99004 44.63796 15997 ft 248 kts 190°
2026-05-07 18:16 49.97319 44.63263 15423 ft 246 kts 193°
2026-05-07 18:16 49.95687 44.62623 14901 ft 244 kts 194°
2026-05-07 18:16 49.94045 44.61975 14369 ft 243 kts 193°
2026-05-07 18:16 49.92412 44.61368 13858 ft 241 kts 192°
2026-05-07 18:17 49.90786 44.60772 13301 ft 239 kts 193°
2026-05-07 18:17 49.89555 44.60316 12881 ft 237 kts 193°
2026-05-07 18:21 49.88677 44.59989 12585 ft 236 kts 193°
2026-05-07 18:21 49.87088 44.59398 12059 ft 234 kts 193°
2026-05-07 18:21 49.85514 44.58813 11530 ft 232 kts 193°
2026-05-07 18:21 49.83954 44.58234 11030 ft 230 kts 193°
2026-05-07 18:22 49.82407 44.57660 10516 ft 228 kts 193°
2026-05-07 18:22 49.81389 44.57283 10193 ft 226 kts 193°
2026-05-07 18:22 49.79373 44.56536 9540 ft 224 kts 193°
2026-05-07 18:22 49.77864 44.55978 9027 ft 222 kts 194°
2026-05-07 18:23 49.76366 44.55424 8522 ft 220 kts 194°
2026-05-07 18:23 49.74885 44.54877 8031 ft 218 kts 194°
2026-05-07 18:23 49.73413 44.54333 7545 ft 216 kts 194°
2026-05-07 18:23 49.71957 44.53796 7077 ft 214 kts 194°
2026-05-07 18:24 49.70512 44.53263 6615 ft 213 kts 194°
2026-05-07 18:24 49.69078 44.52734 6157 ft 211 kts 194°
2026-05-07 18:24 49.67668 44.52214 5965 ft 207 kts 194°
2026-05-07 18:24 49.66269 44.51699 5972 ft 210 kts 194°
2026-05-07 18:25 49.64848 44.51176 5968 ft 210 kts 194°
2026-05-07 18:25 49.63424 44.50653 5973 ft 210 kts 194°
2026-05-07 18:25 49.62002 44.50130 5971 ft 210 kts 194°
2026-05-07 18:25 49.60582 44.49608 5973 ft 210 kts 194°
2026-05-07 18:26 49.59160 44.49086 5968 ft 210 kts 194°
2026-05-07 18:26 49.57739 44.48565 5969 ft 210 kts 194°
2026-05-07 18:26 49.56317 44.48043 5971 ft 210 kts 194°
2026-05-07 18:26 49.54896 44.47522 5965 ft 210 kts 194°
2026-05-07 18:27 49.53494 44.47009 5970 ft 210 kts 194°
2026-05-07 18:27 49.52072 44.46489 5971 ft 210 kts 194°
2026-05-07 18:27 49.50650 44.45969 5970 ft 210 kts 194°
2026-05-07 18:27 49.49692 44.45618 5968 ft 210 kts 194°
2026-05-07 18:28 49.47813 44.44932 5967 ft 209 kts 194°
2026-05-07 18:28 49.46393 44.44413 5969 ft 210 kts 194°
2026-05-07 18:28 49.44969 44.43893 5971 ft 210 kts 194°
2026-05-07 18:28 49.43550 44.43376 5970 ft 210 kts 194°
2026-05-07 18:29 49.42131 44.42859 5971 ft 210 kts 194°
2026-05-07 18:29 49.40710 44.42341 5975 ft 210 kts 194°
2026-05-07 18:29 49.39284 44.41822 5975 ft 212 kts 194°
2026-05-07 18:29 49.37865 44.41305 5974 ft 212 kts 194°
2026-05-07 18:30 49.36430 44.40783 5972 ft 212 kts 194°
2026-05-07 18:30 49.34995 44.40262 5969 ft 212 kts 194°
2026-05-07 18:30 49.33561 44.39742 5968 ft 212 kts 194°
2026-05-07 18:30 49.32130 44.39222 5967 ft 211 kts 194°
2026-05-07 18:31 49.30698 44.38702 5972 ft 211 kts 194°
2026-05-07 18:31 49.29266 44.38183 5971 ft 212 kts 194°
2026-05-07 18:31 49.27835 44.37665 5971 ft 211 kts 194°
2026-05-07 18:31 49.26407 44.37148 5970 ft 211 kts 194°
2026-05-07 18:32 49.24978 44.36631 5971 ft 211 kts 194°
2026-05-07 18:32 49.23564 44.36120 5973 ft 212 kts 194°
2026-05-07 18:32 49.22112 44.35595 5973 ft 211 kts 194°
2026-05-07 18:32 49.20702 44.35085 5976 ft 212 kts 194°
2026-05-07 18:33 49.19269 44.34568 5977 ft 211 kts 194°
2026-05-07 18:33 49.17842 44.34052 5963 ft 208 kts 194°
2026-05-07 18:33 49.16431 44.33544 5494 ft 209 kts 194°
2026-05-07 18:33 49.14996 44.33235 4908 ft 209 kts 173°
2026-05-07 18:34 49.13664 44.33989 4419 ft 204 kts 151°
2026-05-07 18:34 49.12412 44.35019 3912 ft 205 kts 150°
2026-05-07 18:34 49.11147 44.36041 3473 ft 206 kts 152°
2026-05-07 18:34 49.09876 44.37030 3061 ft 204 kts 152°
2026-05-07 18:35 49.08619 44.38002 2663 ft 200 kts 152°
2026-05-07 18:35 49.07416 44.38937 2588 ft 194 kts 153°
2026-05-07 18:35 49.06217 44.39869 2585 ft 195 kts 152°
2026-05-07 18:35 49.05006 44.40811 2592 ft 196 kts 152°
2026-05-07 18:36 49.03793 44.41755 2594 ft 196 kts 153°
2026-05-07 18:36 49.02574 44.42699 2582 ft 196 kts 153°
2026-05-07 18:36 49.01356 44.43644 2583 ft 197 kts 153°
2026-05-07 18:36 49.00136 44.44590 2581 ft 197 kts 153°
2026-05-07 18:37 48.98900 44.45547 2601 ft 208 kts 153°
2026-05-07 18:37 48.97540 44.46600 2609 ft 229 kts 153°
2026-05-07 18:37 48.96094 44.47720 2603 ft 233 kts 153°
2026-05-07 18:37 48.94641 44.48844 2599 ft 236 kts 153°
2026-05-07 18:38 48.93170 44.49855 2602 ft 235 kts 157°
2026-05-07 18:38 48.91692 44.50950 2591 ft 236 kts 153°
2026-05-07 18:38 48.90228 44.52077 2597 ft 236 kts 154°
2026-05-07 18:38 48.88809 44.53111 2563 ft 211 kts 155°
2026-05-07 18:39 48.87571 44.53995 2548 ft 184 kts 155°
2026-05-07 18:39 48.86431 44.54798 2553 ft 179 kts 160°
2026-05-07 18:39 48.85226 44.54904 2351 ft 173 kts 203°
2026-05-07 18:39 48.84319 44.53818 1974 ft 167 kts 246°
2026-05-07 18:40 48.83896 44.52244 1792 ft 158 kts 248°
2026-05-07 18:40 48.83441 44.50648 1880 ft 180 kts 249°
2026-05-07 18:40 48.82878 44.48831 2293 ft 197 kts 246°
2026-05-07 18:40 48.82303 44.47039 2726 ft 182 kts 247°
2026-05-07 18:41 48.81773 44.45371 2986 ft 168 kts 247°
2026-05-07 18:41 48.81262 44.43792 2872 ft 163 kts 246°
2026-05-07 18:41 48.80753 44.42302 2528 ft 157 kts 246°
2026-05-07 18:41 48.80304 44.40863 2261 ft 149 kts 248°
2026-05-07 18:42 48.79855 44.39397 1621 ft 162 kts 248°
2026-05-07 18:42 48.79387 44.37875 1136 ft 161 kts 246°
2026-05-07 18:42 48.78930 44.36398 804 ft 150 kts 245°
2026-05-07 18:42 48.78481 44.35013 484 ft 144 kts 243°
2026-05-07 18:43 48.78108 44.33825 464 ft 96 kts 243°
2026-05-07 18:43 48.77872 44.33074 455 ft 72 kts 244°
2026-05-07 18:43 48.77667 44.32430 427 ft 64 kts 245°
2026-05-07 18:43 48.77524 44.31980 420 ft 32 kts 249°
2026-05-07 18:44 48.77547 44.31787 422 ft 15 kts 321°
2026-05-07 18:44 48.77614 44.31753 424 ft 9 kts 14°
2026-05-07 18:44 48.77648 44.31791 425 ft 9 kts 52°
2026-05-07 18:44 48.77707 44.31980 427 ft 21 kts 64°
2026-05-07 18:45 48.77783 44.32220 429 ft 29 kts 65°
2026-05-07 18:45 48.77883 44.32535 446 ft 37 kts 64°
2026-05-07 18:45 48.78004 44.32916 452 ft 43 kts 64°
2026-05-07 18:45 48.78142 44.33353 457 ft 49 kts 64°
2026-05-07 18:46 48.78290 44.33821 463 ft 44 kts 64°
2026-05-07 18:46 48.78356 44.34033 464 ft 20 kts 64°
2026-05-07 18:46 48.78390 44.34137 464 ft 13 kts 58°
2026-05-07 18:46 48.78481 44.34184 464 ft 19 kts 351°
2026-05-07 18:47 48.78558 44.34156 463 ft 5 kts 345°
2026-05-07 18:47 48.78636 44.34152 462 ft 8 kts 28°
2026-05-07 18:47 48.78664 44.34232 465 ft 13 kts 68°
2026-05-07 18:47 48.78706 44.34395 465 ft 20 kts 68°
2026-05-07 18:48 48.78738 44.34517 466 ft 11 kts 69°
2026-05-07 18:48 48.78790 44.34724 470 ft 21 kts 67°
2026-05-07 18:48 48.78817 44.34823 471 ft 0 kts 68°
2026-05-07 18:49 48.78821 44.34836 475 ft 5 kts 65°
2026-05-07 18:49 48.78857 44.34891 474 ft 7 kts 23°
2026-05-07 18:49 48.78894 44.34890 475 ft 5 kts 345°
2026-05-07 18:49 48.78922 44.34877 476 ft 4 kts 340°
2026-05-07 18:50 48.78923 44.34877 476 ft 0 kts 340°